�v������,�v���f�[�^(L),����(MJ),�����t���O
2004/2/1 0:00,28.55227661,1.064999967,0
2004/2/1 0:15,28.55227661,1.064999967,0
2004/2/1 0:30,30.75066852,1.146999984,0
2004/2/1 0:45,0,0,0
2004/2/1 1:00,0,0,0
2004/2/1 1:15,0,0,0
2004/2/1 1:30,0,0,0
2004/2/1 1:45,0,0,0
2004/2/1 2:00,0,0,0
2004/2/1 2:15,0,0,0
2004/2/1 2:30,0,0,0
2004/2/1 2:45,0,0,0
2004/2/1 3:00,0,0,0
2004/2/1 3:15,0,0,0
2004/2/1 3:30,0,0,0
2004/2/1 3:45,0,0,0
2004/2/1 4:00,0,0,0
2004/2/1 4:15,0,0,0
2004/2/1 4:30,0,0,0
2004/2/1 4:45,0,0,0
2004/2/1 5:00,0,0,0
2004/2/1 5:15,0,0,0
2004/2/1 5:30,0,0,0
2004/2/1 5:45,0,0,0
2004/2/1 6:00,0,0,0
2004/2/1 6:15,0,0,0
2004/2/1 6:30,0,0,0
2004/2/1 6:45,0,0,0
2004/2/1 7:00,0,0,0
2004/2/1 7:15,4.798927784,0.179000005,0
2004/2/1 7:30,28.55227661,1.064999967,0
2004/2/1 7:45,28.55227661,1.064999967,0
2004/2/1 8:00,28.55227661,1.064999967,0
2004/2/1 8:15,28.55227661,1.064999967,0
2004/2/1 8:30,28.55227661,1.064999967,0
2004/2/1 8:45,28.55227661,1.064999967,0
2004/2/1 9:00,28.55227661,1.064999967,0
2004/2/1 9:15,28.55227661,1.064999967,0
2004/2/1 9:30,28.55227661,1.064999967,0
2004/2/1 9:45,11.74262714,0.437999994,0
2004/2/1 10:00,0,0,0
2004/2/1 10:15,0,0,0
2004/2/1 10:30,0,0,0
2004/2/1 10:45,0,0,0
2004/2/1 11:00,0,0,0
2004/2/1 11:15,0,0,0
2004/2/1 11:30,0,0,0
2004/2/1 11:45,0,0,0
2004/2/1 12:00,0,0,0
2004/2/1 12:15,0,0,0
2004/2/1 12:30,0,0,0
2004/2/1 12:45,0,0,0
2004/2/1 13:00,0,0,0
2004/2/1 13:15,0,0,0
2004/2/1 13:30,0,0,0
2004/2/1 13:45,0,0,0
2004/2/1 14:00,0,0,0
2004/2/1 14:15,0,0,0
2004/2/1 14:30,0,0,0
2004/2/1 14:45,0,0,0
2004/2/1 15:00,0,0,0
2004/2/1 15:15,0,0,0
2004/2/1 15:30,0,0,0
2004/2/1 15:45,0,0,0
2004/2/1 16:00,0,0,0
2004/2/1 16:15,0,0,0
2004/2/1 16:30,0,0,0
2004/2/1 16:45,0,0,0
2004/2/1 17:00,0,0,0
2004/2/1 17:15,0,0,0
2004/2/1 17:30,0,0,0
2004/2/1 17:45,0,0,0
2004/2/1 18:00,0,0,0
2004/2/1 18:15,0,0,0
2004/2/1 18:30,0,0,0
2004/2/1 18:45,0,0,0
2004/2/1 19:00,0,0,0
2004/2/1 19:15,0,0,0
2004/2/1 19:30,0,0,0
2004/2/1 19:45,0,0,0
2004/2/1 20:00,0,0,0
2004/2/1 20:15,0,0,0
2004/2/1 20:30,0,0,0
2004/2/1 20:45,0,0,0
2004/2/1 21:00,0,0,0
2004/2/1 21:15,0,0,0
2004/2/1 21:30,0,0,0
2004/2/1 21:45,0,0,0
2004/2/1 22:00,10.77747917,0.401999987,0
2004/2/1 22:15,28.55227661,1.064999967,0
2004/2/1 22:30,28.55227661,1.064999967,0
2004/2/1 22:45,28.55227661,1.064999967,0
2004/2/1 23:00,28.55227661,1.064999967,0
2004/2/1 23:15,22.76139402,0.849000007,0
2004/2/1 23:30,25.06702328,0.935000003,0
2004/2/1 23:45,25.81769466,0.962999999,0
2004/2/2 0:00,25.36192989,0.94599998,0
2004/2/2 0:15,11.9034853,0.444000006,0
2004/2/2 0:30,0,0,0
2004/2/2 0:45,0,0,0
2004/2/2 1:00,0,0,0
2004/2/2 1:15,0,0,0
2004/2/2 1:30,0,0,0
2004/2/2 1:45,0,0,0
2004/2/2 2:00,0,0,0
2004/2/2 2:15,0,0,0
2004/2/2 2:30,0,0,0
2004/2/2 2:45,0,0,0
2004/2/2 3:00,0,0,0
2004/2/2 3:15,0,0,0
2004/2/2 3:30,0,0,0
2004/2/2 3:45,0,0,0
2004/2/2 4:00,0,0,0
2004/2/2 4:15,0,0,0
2004/2/2 4:30,0,0,0
2004/2/2 4:45,0,0,0
2004/2/2 5:00,0,0,0
2004/2/2 5:15,0,0,0
2004/2/2 5:30,0,0,0
2004/2/2 5:45,0,0,0
2004/2/2 6:00,0,0,0
2004/2/2 6:15,0,0,0
2004/2/2 6:30,6.943699837,0.259000003,0
2004/2/2 6:45,28.55227661,1.064999967,0
2004/2/2 7:00,28.55227661,1.064999967,0
2004/2/2 7:15,26.78284025,0.998999983,0
2004/2/2 7:30,0,0,0
2004/2/2 7:45,0,0,0
2004/2/2 8:00,0,0,0
2004/2/2 8:15,0,0,0
2004/2/2 8:30,0,0,0
2004/2/2 8:45,0,0,0
2004/2/2 9:00,0,0,0
2004/2/2 9:15,0,0,0
2004/2/2 9:30,0,0,0
2004/2/2 9:45,0,0,0
2004/2/2 10:00,0,0,0
2004/2/2 10:15,0,0,0
2004/2/2 10:30,0,0,0
2004/2/2 10:45,0,0,0
2004/2/2 11:00,0,0,0
2004/2/2 11:15,0,0,0
2004/2/2 11:30,0,0,0
2004/2/2 11:45,0,0,0
2004/2/2 12:00,0,0,0
2004/2/2 12:15,0,0,0
2004/2/2 12:30,0,0,0
2004/2/2 12:45,0,0,0
2004/2/2 13:00,0,0,0
2004/2/2 13:15,0,0,0
2004/2/2 13:30,0,0,0
2004/2/2 13:45,0,0,0
2004/2/2 14:00,0,0,0
2004/2/2 14:15,0,0,0
2004/2/2 14:30,0,0,0
2004/2/2 14:45,0,0,0
2004/2/2 15:00,0,0,0
2004/2/2 15:15,0,0,0
2004/2/2 15:30,0,0,0
2004/2/2 15:45,0,0,0
2004/2/2 16:00,0,0,0
2004/2/2 16:15,0,0,0
2004/2/2 16:30,0,0,0
2004/2/2 16:45,0,0,0
2004/2/2 17:00,0,0,0
2004/2/2 17:15,0,0,0
2004/2/2 17:30,0,0,0
2004/2/2 17:45,0,0,0
2004/2/2 18:00,0,0,0
2004/2/2 18:15,6.166220188,0.230000004,0
2004/2/2 18:30,28.55227661,1.064999967,0
2004/2/2 18:45,28.55227661,1.064999967,0
2004/2/2 19:00,28.55227661,1.064999967,0
2004/2/2 19:15,28.55227661,1.064999967,0
2004/2/2 19:30,28.55227661,1.064999967,0
2004/2/2 19:45,20.77747906,0.774999984,0
2004/2/2 20:00,28.55227661,1.064999967,0
2004/2/2 20:15,28.55227661,1.064999967,0
2004/2/2 20:30,28.55227661,1.064999967,0
2004/2/2 20:45,28.55227661,1.064999967,0
2004/2/2 21:00,28.55227661,1.064999967,0
2004/2/2 21:15,28.55227661,1.064999967,0
2004/2/2 21:30,28.55227661,1.064999967,0
2004/2/2 21:45,28.4182291,1.059999972,0
2004/2/2 22:00,28.20375252,1.051999986,0
2004/2/2 22:15,28.23056126,1.052999973,0
2004/2/2 22:30,27.72118092,1.03400001,0
2004/2/2 22:45,26.13941002,0.974999993,0
2004/2/2 23:00,26.00536251,0.969999998,0
2004/2/2 23:15,25.28150082,0.942999989,0
2004/2/2 23:30,24.93297625,0.930000007,0
2004/2/2 23:45,22.78820467,0.850000024,0
2004/2/3 0:00,0,0,0
2004/2/3 0:15,0,0,0
2004/2/3 0:30,0,0,0
2004/2/3 0:45,0,0,0
2004/2/3 1:00,0,0,0
2004/2/3 1:15,0,0,0
2004/2/3 1:30,0,0,0
2004/2/3 1:45,0,0,0
2004/2/3 2:00,0,0,0
2004/2/3 2:15,0,0,0
2004/2/3 2:30,0,0,0
2004/2/3 2:45,0,0,0
2004/2/3 3:00,0,0,0
2004/2/3 3:15,0,0,0
2004/2/3 3:30,0,0,0
2004/2/3 3:45,0,0,0
2004/2/3 4:00,0,0,0
2004/2/3 4:15,0,0,0
2004/2/3 4:30,0,0,0
2004/2/3 4:45,0,0,0
2004/2/3 5:00,0,0,0
2004/2/3 5:15,0,0,0
2004/2/3 5:30,0,0,0
2004/2/3 5:45,0,0,0
2004/2/3 6:00,0,0,0
2004/2/3 6:15,0,0,0
2004/2/3 6:30,11.23324335,0.418999992,0
2004/2/3 6:45,28.55227661,1.064999967,0
2004/2/3 7:00,28.55227661,1.064999967,0
2004/2/3 7:15,28.55227661,1.064999967,0
2004/2/3 7:30,6.997319221,0.261000007,0
2004/2/3 7:45,0,0,0
2004/2/3 8:00,0,0,0
2004/2/3 8:15,0,0,0
2004/2/3 8:30,0,0,0
2004/2/3 8:45,0,0,0
2004/2/3 9:00,0,0,0
2004/2/3 9:15,0,0,0
2004/2/3 9:30,0,0,0
2004/2/3 9:45,0,0,0
2004/2/3 10:00,0,0,0
2004/2/3 10:15,0,0,0
2004/2/3 10:30,0,0,0
2004/2/3 10:45,0,0,0
2004/2/3 11:00,0,0,0
2004/2/3 11:15,0,0,0
2004/2/3 11:30,0,0,0
2004/2/3 11:45,0,0,0
2004/2/3 12:00,0,0,0
2004/2/3 12:15,0,0,0
2004/2/3 12:30,0,0,0
2004/2/3 12:45,0,0,0
2004/2/3 13:00,0,0,0
2004/2/3 13:15,0,0,0
2004/2/3 13:30,0,0,0
2004/2/3 13:45,0,0,0
2004/2/3 14:00,0,0,0
2004/2/3 14:15,0,0,0
2004/2/3 14:30,0,0,0
2004/2/3 14:45,0,0,0
2004/2/3 15:00,0,0,0
2004/2/3 15:15,0,0,0
2004/2/3 15:30,0,0,0
2004/2/3 15:45,0,0,0
2004/2/3 16:00,0,0,0
2004/2/3 16:15,0,0,0
2004/2/3 16:30,0,0,0
2004/2/3 16:45,0,0,0
2004/2/3 17:00,0,0,0
2004/2/3 17:15,0,0,0
2004/2/3 17:30,0,0,0
2004/2/3 17:45,0,0,0
2004/2/3 18:00,0,0,0
2004/2/3 18:15,0,0,0
2004/2/3 18:30,0,0,0
2004/2/3 18:45,0,0,0
2004/2/3 19:00,0,0,0
2004/2/3 19:15,0,0,0
2004/2/3 19:30,0,0,0
2004/2/3 19:45,0,0,0
2004/2/3 20:00,0,0,0
2004/2/3 20:15,0,0,0
2004/2/3 20:30,0,0,0
2004/2/3 20:45,0,0,0
2004/2/3 21:00,0,0,0
2004/2/3 21:15,8.096514702,0.301999986,0
2004/2/3 21:30,28.55227661,1.064999967,0
2004/2/3 21:45,28.55227661,1.064999967,0
2004/2/3 22:00,28.55227661,1.064999967,0
2004/2/3 22:15,28.55227661,1.064999967,0
2004/2/3 22:30,28.55227661,1.064999967,0
2004/2/3 22:45,28.55227661,1.064999967,0
2004/2/3 23:00,28.55227661,1.064999967,0
2004/2/3 23:15,28.55227661,1.064999967,0
2004/2/3 23:30,28.55227661,1.064999967,0
2004/2/3 23:45,28.55227661,1.064999967,0
2004/2/4 0:00,28.55227661,1.064999967,0
2004/2/4 0:15,28.55227661,1.064999967,0
2004/2/4 0:30,28.55227661,1.064999967,0
2004/2/4 0:45,16.38069677,0.611000001,0
2004/2/4 1:00,0,0,0
2004/2/4 1:15,0,0,0
2004/2/4 1:30,0,0,0
2004/2/4 1:45,0,0,0
2004/2/4 2:00,0,0,0
2004/2/4 2:15,0,0,0
2004/2/4 2:30,0,0,0
2004/2/4 2:45,0,0,0
2004/2/4 3:00,0,0,0
2004/2/4 3:15,0,0,0
2004/2/4 3:30,0,0,0
2004/2/4 3:45,0,0,0
2004/2/4 4:00,0,0,0
2004/2/4 4:15,0,0,0
2004/2/4 4:30,0,0,0
2004/2/4 4:45,0,0,0
2004/2/4 5:00,0,0,0
2004/2/4 5:15,0,0,0
2004/2/4 5:30,0,0,0
2004/2/4 5:45,0,0,0
2004/2/4 6:00,0,0,0
2004/2/4 6:15,0,0,0
2004/2/4 6:30,13.80696964,0.514999985,0
2004/2/4 6:45,28.55227661,1.064999967,0
2004/2/4 7:00,28.55227661,1.064999967,0
2004/2/4 7:15,22.86863232,0.852999985,0
2004/2/4 7:30,0,0,0
2004/2/4 7:45,0,0,0
2004/2/4 8:00,0,0,0
2004/2/4 8:15,0,0,0
2004/2/4 8:30,0,0,0
2004/2/4 8:45,0,0,0
2004/2/4 9:00,0,0,0
2004/2/4 9:15,0,0,0
2004/2/4 9:30,0,0,0
2004/2/4 9:45,0,0,0
2004/2/4 10:00,0,0,0
2004/2/4 10:15,0,0,0
2004/2/4 10:30,0,0,0
2004/2/4 10:45,0,0,0
2004/2/4 11:00,0,0,0
2004/2/4 11:15,0,0,0
2004/2/4 11:30,0,0,0
2004/2/4 11:45,0,0,0
2004/2/4 12:00,0,0,0
2004/2/4 12:15,0,0,0
2004/2/4 12:30,0,0,0
2004/2/4 12:45,0,0,0
2004/2/4 13:00,0,0,0
2004/2/4 13:15,0,0,0
2004/2/4 13:30,0,0,0
2004/2/4 13:45,0,0,0
2004/2/4 14:00,0,0,0
2004/2/4 14:15,0,0,0
2004/2/4 14:30,0,0,0
2004/2/4 14:45,0,0,0
2004/2/4 15:00,0,0,0
2004/2/4 15:15,0,0,0
2004/2/4 15:30,0,0,0
2004/2/4 15:45,0,0,0
2004/2/4 16:00,0,0,0
2004/2/4 16:15,0,0,2
2004/2/4 16:30,0,0,2
2004/2/4 16:45,0,0,2
2004/2/4 17:00,0,0,2
2004/2/4 17:15,0,0,0
2004/2/4 17:30,0,0,0
2004/2/4 17:45,0,0,0
2004/2/4 18:00,0,0,0
2004/2/4 18:15,0,0,0
2004/2/4 18:30,0,0,0
2004/2/4 18:45,0,0,0
2004/2/4 19:00,0,0,0
2004/2/4 19:15,0,0,0
2004/2/4 19:30,0,0,0
2004/2/4 19:45,2.117962599,0.079000004,0
2004/2/4 20:00,28.55227661,1.064999967,0
2004/2/4 20:15,28.55227661,1.064999967,0
2004/2/4 20:30,28.55227661,1.064999967,0
2004/2/4 20:45,28.55227661,1.064999967,0
2004/2/4 21:00,28.55227661,1.064999967,0
2004/2/4 21:15,28.55227661,1.064999967,0
2004/2/4 21:30,28.55227661,1.064999967,0
2004/2/4 21:45,28.55227661,1.064999967,0
2004/2/4 22:00,28.55227661,1.064999967,0
2004/2/4 22:15,28.55227661,1.064999967,0
2004/2/4 22:30,28.55227661,1.064999967,0
2004/2/4 22:45,28.55227661,1.064999967,0
2004/2/4 23:00,28.55227661,1.064999967,0
2004/2/4 23:15,28.55227661,1.064999967,0
2004/2/4 23:30,28.55227661,1.064999967,0
2004/2/4 23:45,28.55227661,1.064999967,0
2004/2/5 0:00,29.46380519,1.098999977,0
2004/2/5 0:15,0,0,0
2004/2/5 0:30,0,0,0
2004/2/5 0:45,0,0,0
2004/2/5 1:00,0,0,0
2004/2/5 1:15,0,0,0
2004/2/5 1:30,0,0,0
2004/2/5 1:45,0,0,0
2004/2/5 2:00,0,0,0
2004/2/5 2:15,0,0,0
2004/2/5 2:30,0,0,0
2004/2/5 2:45,0,0,0
2004/2/5 3:00,0,0,0
2004/2/5 3:15,0,0,0
2004/2/5 3:30,0,0,0
2004/2/5 3:45,0,0,0
2004/2/5 4:00,0,0,0
2004/2/5 4:15,0,0,0
2004/2/5 4:30,0,0,0
2004/2/5 4:45,0,0,0
2004/2/5 5:00,0,0,0
2004/2/5 5:15,0,0,0
2004/2/5 5:30,0,0,0
2004/2/5 5:45,0,0,0
2004/2/5 6:00,0,0,0
2004/2/5 6:15,0,0,0
2004/2/5 6:30,22.60053468,0.842999979,0
2004/2/5 6:45,28.55227661,1.064999967,0
2004/2/5 7:00,28.55227661,1.064999967,0
2004/2/5 7:15,15.71045542,0.585999995,0
2004/2/5 7:30,0,0,0
2004/2/5 7:45,0,0,0
2004/2/5 8:00,0,0,0
2004/2/5 8:15,0,0,0
2004/2/5 8:30,0,0,0
2004/2/5 8:45,0,0,0
2004/2/5 9:00,0,0,0
2004/2/5 9:15,0,0,0
2004/2/5 9:30,0,0,0
2004/2/5 9:45,0,0,0
2004/2/5 10:00,0,0,0
2004/2/5 10:15,0,0,0
2004/2/5 10:30,0,0,0
2004/2/5 10:45,0,0,0
2004/2/5 11:00,0,0,0
2004/2/5 11:15,0,0,0
2004/2/5 11:30,0,0,0
2004/2/5 11:45,0,0,0
2004/2/5 12:00,0,0,0
2004/2/5 12:15,0,0,0
2004/2/5 12:30,0,0,0
2004/2/5 12:45,0,0,0
2004/2/5 13:00,0,0,0
2004/2/5 13:15,0,0,0
2004/2/5 13:30,0,0,0
2004/2/5 13:45,0,0,0
2004/2/5 14:00,0,0,0
2004/2/5 14:15,0,0,0
2004/2/5 14:30,0,0,0
2004/2/5 14:45,0,0,0
2004/2/5 15:00,0,0,0
2004/2/5 15:15,0,0,0
2004/2/5 15:30,0,0,0
2004/2/5 15:45,0,0,0
2004/2/5 16:00,0,0,0
2004/2/5 16:15,0,0,0
2004/2/5 16:30,0,0,0
2004/2/5 16:45,0,0,0
2004/2/5 17:00,0,0,0
2004/2/5 17:15,0,0,0
2004/2/5 17:30,0,0,0
2004/2/5 17:45,0,0,0
2004/2/5 18:00,0,0,0
2004/2/5 18:15,25.25469017,0.941999971,0
2004/2/5 18:30,6.916889668,0.257999986,0
2004/2/5 18:45,0,0,0
2004/2/5 19:00,0,0,0
2004/2/5 19:15,0,0,0
2004/2/5 19:30,0,0,0
2004/2/5 19:45,0,0,0
2004/2/5 20:00,27.69436932,1.032999992,0
2004/2/5 20:15,28.55227661,1.064999967,0
2004/2/5 20:30,28.55227661,1.064999967,0
2004/2/5 20:45,28.55227661,1.064999967,0
2004/2/5 21:00,28.55227661,1.064999967,0
2004/2/5 21:15,28.55227661,1.064999967,0
2004/2/5 21:30,28.44503975,1.060999989,0
2004/2/5 21:45,27.56032085,1.027999968,0
2004/2/5 22:00,25.20107222,0.939999968,0
2004/2/5 22:15,23.86058998,0.890000001,0
2004/2/5 22:30,27.9088459,1.040999979,0
2004/2/5 22:45,28.55227661,1.064999967,0
2004/2/5 23:00,28.52546787,1.06399998,0
2004/2/5 23:15,28.47184849,1.061999976,0
2004/2/5 23:30,28.04289532,1.046000004,0
2004/2/5 23:45,25.20107174,0.939999997,0
2004/2/6 0:00,22.01072359,0.820999995,0
2004/2/6 0:15,5.335120678,0.199000001,0
2004/2/6 0:30,0,0,0
2004/2/6 0:45,0,0,0
2004/2/6 1:00,0,0,0
2004/2/6 1:15,0,0,0
2004/2/6 1:30,0,0,0
2004/2/6 1:45,0,0,0
2004/2/6 2:00,0,0,0
2004/2/6 2:15,0,0,0
2004/2/6 2:30,0,0,0
2004/2/6 2:45,0,0,0
2004/2/6 3:00,0,0,0
2004/2/6 3:15,0,0,0
2004/2/6 3:30,0,0,0
2004/2/6 3:45,0,0,0
2004/2/6 4:00,0,0,0
2004/2/6 4:15,0,0,0
2004/2/6 4:30,0,0,0
2004/2/6 4:45,0,0,0
2004/2/6 5:00,0,0,0
2004/2/6 5:15,0,0,0
2004/2/6 5:30,0,0,0
2004/2/6 5:45,0,0,0
2004/2/6 6:00,0,0,0
2004/2/6 6:15,0,0,0
2004/2/6 6:30,20.40214324,0.760999977,0
2004/2/6 6:45,28.55227661,1.064999967,0
2004/2/6 7:00,28.55227661,1.064999967,0
2004/2/6 7:15,15.8713131,0.591999992,0
2004/2/6 7:30,0,0,0
2004/2/6 7:45,0,0,0
2004/2/6 8:00,0,0,0
2004/2/6 8:15,0,0,0
2004/2/6 8:30,0,0,0
2004/2/6 8:45,0,0,0
2004/2/6 9:00,0,0,0
2004/2/6 9:15,0,0,0
2004/2/6 9:30,0,0,0
2004/2/6 9:45,0,0,0
2004/2/6 10:00,0,0,0
2004/2/6 10:15,0,0,0
2004/2/6 10:30,0,0,0
2004/2/6 10:45,0,0,0
2004/2/6 11:00,0,0,0
2004/2/6 11:15,0,0,0
2004/2/6 11:30,0,0,0
2004/2/6 11:45,0,0,0
2004/2/6 12:00,0,0,0
2004/2/6 12:15,0,0,0
2004/2/6 12:30,0,0,0
2004/2/6 12:45,0,0,0
2004/2/6 13:00,0,0,0
2004/2/6 13:15,0,0,0
2004/2/6 13:30,0,0,0
2004/2/6 13:45,0,0,0
2004/2/6 14:00,0,0,0
2004/2/6 14:15,0,0,0
2004/2/6 14:30,0,0,0
2004/2/6 14:45,0,0,0
2004/2/6 15:00,0,0,0
2004/2/6 15:15,0,0,0
2004/2/6 15:30,0,0,0
2004/2/6 15:45,0,0,0
2004/2/6 16:00,0,0,0
2004/2/6 16:15,0,0,0
2004/2/6 16:30,0,0,0
2004/2/6 16:45,0,0,0
2004/2/6 17:00,0,0,0
2004/2/6 17:15,0,0,0
2004/2/6 17:30,0,0,0
2004/2/6 17:45,0,0,0
2004/2/6 18:00,14.34316301,0.534999996,0
2004/2/6 18:15,28.55227661,1.064999967,0
2004/2/6 18:30,28.55227661,1.064999967,0
2004/2/6 18:45,28.55227661,1.064999967,0
2004/2/6 19:00,28.55227661,1.064999967,0
2004/2/6 19:15,28.55227661,1.064999967,0
2004/2/6 19:30,28.55227661,1.064999967,0
2004/2/6 19:45,28.55227661,1.064999967,0
2004/2/6 20:00,28.55227661,1.064999967,0
2004/2/6 20:15,28.55227661,1.064999967,0
2004/2/6 20:30,28.55227661,1.064999967,0
2004/2/6 20:45,28.55227661,1.064999967,0
2004/2/6 21:00,28.55227661,1.064999967,0
2004/2/6 21:15,28.55227661,1.064999967,0
2004/2/6 21:30,28.55227661,1.064999967,0
2004/2/6 21:45,28.55227661,1.064999967,0
2004/2/6 22:00,28.55227661,1.064999967,0
2004/2/6 22:15,25.73726416,0.959999978,0
2004/2/6 22:30,14.93297529,0.556999996,0
2004/2/6 22:45,28.55227661,1.064999967,0
2004/2/6 23:00,28.55227661,1.064999967,0
2004/2/6 23:15,28.55227661,1.064999967,0
2004/2/6 23:30,28.55227661,1.064999967,0
2004/2/6 23:45,28.55227661,1.064999967,0
2004/2/7 0:00,28.55227661,1.064999967,0
2004/2/7 0:15,28.55227661,1.064999967,0
2004/2/7 0:30,28.73994446,1.071999967,0
2004/2/7 0:45,0,0,0
2004/2/7 1:00,0,0,0
2004/2/7 1:15,0,0,0
2004/2/7 1:30,0,0,0
2004/2/7 1:45,0,0,0
2004/2/7 2:00,0,0,0
2004/2/7 2:15,0,0,0
2004/2/7 2:30,0,0,0
2004/2/7 2:45,0,0,0
2004/2/7 3:00,0,0,0
2004/2/7 3:15,0,0,0
2004/2/7 3:30,0,0,0
2004/2/7 3:45,0,0,0
2004/2/7 4:00,0,0,0
2004/2/7 4:15,0,0,0
2004/2/7 4:30,0,0,0
2004/2/7 4:45,0,0,0
2004/2/7 5:00,0,0,0
2004/2/7 5:15,0,0,0
2004/2/7 5:30,0,0,0
2004/2/7 5:45,0,0,0
2004/2/7 6:00,0,0,0
2004/2/7 6:15,0,0,0
2004/2/7 6:30,0,0,0
2004/2/7 6:45,0,0,0
2004/2/7 7:00,19.70509237,0.734999978,0
2004/2/7 7:15,28.55227661,1.064999967,0
2004/2/7 7:30,28.55227661,1.064999967,0
2004/2/7 7:45,28.55227661,1.064999967,0
2004/2/7 8:00,28.55227661,1.064999967,0
2004/2/7 8:15,28.55227661,1.064999967,0
2004/2/7 8:30,28.55227661,1.064999967,0
2004/2/7 8:45,28.55227661,1.064999967,0
2004/2/7 9:00,28.55227661,1.064999967,0
2004/2/7 9:15,28.55227661,1.064999967,0
2004/2/7 9:30,28.55227661,1.064999967,0
2004/2/7 9:45,20.42895413,0.761999994,0
2004/2/7 10:00,0,0,0
2004/2/7 10:15,0,0,0
2004/2/7 10:30,0,0,0
2004/2/7 10:45,0,0,0
2004/2/7 11:00,0,0,0
2004/2/7 11:15,0,0,0
2004/2/7 11:30,0,0,0
2004/2/7 11:45,0,0,0
2004/2/7 12:00,0,0,0
2004/2/7 12:15,0,0,0
2004/2/7 12:30,0,0,0
2004/2/7 12:45,0,0,0
2004/2/7 13:00,0,0,0
2004/2/7 13:15,0,0,0
2004/2/7 13:30,0,0,0
2004/2/7 13:45,0,0,0
2004/2/7 14:00,0,0,0
2004/2/7 14:15,0,0,0
2004/2/7 14:30,0,0,0
2004/2/7 14:45,0,0,0
2004/2/7 15:00,0,0,0
2004/2/7 15:15,0,0,0
2004/2/7 15:30,0,0,0
2004/2/7 15:45,0,0,0
2004/2/7 16:00,0,0,0
2004/2/7 16:15,0,0,0
2004/2/7 16:30,0,0,0
2004/2/7 16:45,0,0,0
2004/2/7 17:00,0,0,0
2004/2/7 17:15,0,0,0
2004/2/7 17:30,0,0,0
2004/2/7 17:45,0,0,0
2004/2/7 18:00,0,0,0
2004/2/7 18:15,0,0,0
2004/2/7 18:30,0,0,0
2004/2/7 18:45,1.286863327,0.048,0
2004/2/7 19:00,28.55227661,1.064999967,0
2004/2/7 19:15,28.55227661,1.064999967,0
2004/2/7 19:30,28.55227661,1.064999967,0
2004/2/7 19:45,28.55227661,1.064999967,0
2004/2/7 20:00,28.55227661,1.064999967,0
2004/2/7 20:15,28.55227661,1.064999967,0
2004/2/7 20:30,28.55227661,1.064999967,0
2004/2/7 20:45,28.55227661,1.064999967,0
2004/2/7 21:00,28.55227661,1.064999967,0
2004/2/7 21:15,28.55227661,1.064999967,0
2004/2/7 21:30,28.55227661,1.064999967,0
2004/2/7 21:45,28.55227661,1.064999967,0
2004/2/7 22:00,28.55227661,1.064999967,0
2004/2/7 22:15,28.55227661,1.064999967,0
2004/2/7 22:30,28.55227661,1.064999967,0
2004/2/7 22:45,27.96246529,1.042999982,0
2004/2/7 23:00,28.55227661,1.064999967,0
2004/2/7 23:15,28.55227661,1.064999967,0
2004/2/7 23:30,28.55227661,1.064999967,0
2004/2/7 23:45,28.55227661,1.064999967,0
2004/2/8 0:00,7.238605976,0.270000011,0
2004/2/8 0:15,0,0,0
2004/2/8 0:30,0,0,0
2004/2/8 0:45,0,0,0
2004/2/8 1:00,0,0,0
2004/2/8 1:15,0,0,0
2004/2/8 1:30,0,0,0
2004/2/8 1:45,0,0,0
2004/2/8 2:00,0,0,0
2004/2/8 2:15,0,0,0
2004/2/8 2:30,0,0,0
2004/2/8 2:45,0,0,0
2004/2/8 3:00,0,0,0
2004/2/8 3:15,0,0,0
2004/2/8 3:30,0,0,0
2004/2/8 3:45,0,0,0
2004/2/8 4:00,0,0,0
2004/2/8 4:15,0,0,0
2004/2/8 4:30,0,0,0
2004/2/8 4:45,0,0,0
2004/2/8 5:00,0,0,0
2004/2/8 5:15,0,0,0
2004/2/8 5:30,0,0,0
2004/2/8 5:45,0,0,0
2004/2/8 6:00,0,0,0
2004/2/8 6:15,11.8498652,0.441999986,0
2004/2/8 6:30,28.55227661,1.064999967,0
2004/2/8 6:45,28.55227661,1.064999967,0
2004/2/8 7:00,31.79624557,1.185999989,0
2004/2/8 7:15,0,0,0
2004/2/8 7:30,0,0,0
2004/2/8 7:45,0,0,0
2004/2/8 8:00,0,0,0
2004/2/8 8:15,0,0,0
2004/2/8 8:30,0,0,0
2004/2/8 8:45,0,0,0
2004/2/8 9:00,0,0,0
2004/2/8 9:15,0,0,0
2004/2/8 9:30,0,0,0
2004/2/8 9:45,0,0,0
2004/2/8 10:00,0,0,0
2004/2/8 10:15,0,0,0
2004/2/8 10:30,0,0,0
2004/2/8 10:45,0,0,0
2004/2/8 11:00,0,0,0
2004/2/8 11:15,0,0,0
2004/2/8 11:30,0,0,0
2004/2/8 11:45,0,0,0
2004/2/8 12:00,0,0,0
2004/2/8 12:15,0,0,0
2004/2/8 12:30,0,0,0
2004/2/8 12:45,0,0,0
2004/2/8 13:00,0,0,0
2004/2/8 13:15,0,0,0
2004/2/8 13:30,0,0,0
2004/2/8 13:45,0,0,0
2004/2/8 14:00,0,0,0
2004/2/8 14:15,0,0,0
2004/2/8 14:30,0,0,0
2004/2/8 14:45,0,0,0
2004/2/8 15:00,0,0,0
2004/2/8 15:15,0,0,0
2004/2/8 15:30,0,0,0
2004/2/8 15:45,0,0,0
2004/2/8 16:00,0,0,0
2004/2/8 16:15,0,0,0
2004/2/8 16:30,0,0,0
2004/2/8 16:45,0,0,0
2004/2/8 17:00,0,0,0
2004/2/8 17:15,0,0,0
2004/2/8 17:30,0,0,0
2004/2/8 17:45,0,0,0
2004/2/8 18:00,0,0,0
2004/2/8 18:15,0,0,0
2004/2/8 18:30,0,0,0
2004/2/8 18:45,0,0,0
2004/2/8 19:00,0,0,0
2004/2/8 19:15,0,0,0
2004/2/8 19:30,23.91420746,0.891999974,0
2004/2/8 19:45,28.55227661,1.064999967,0
2004/2/8 20:00,28.55227661,1.064999967,0
2004/2/8 20:15,28.55227661,1.064999967,0
2004/2/8 20:30,28.55227661,1.064999967,0
2004/2/8 20:45,28.55227661,1.064999967,0
2004/2/8 21:00,28.55227661,1.064999967,0
2004/2/8 21:15,28.55227661,1.064999967,0
2004/2/8 21:30,28.55227661,1.064999967,0
2004/2/8 21:45,28.55227661,1.064999967,0
2004/2/8 22:00,28.55227661,1.064999967,0
2004/2/8 22:15,28.55227661,1.064999967,0
2004/2/8 22:30,28.55227661,1.064999967,0
2004/2/8 22:45,28.55227661,1.064999967,0
2004/2/8 23:00,28.55227661,1.064999967,0
2004/2/8 23:15,28.55227661,1.064999967,0
2004/2/8 23:30,28.55227661,1.064999967,0
2004/2/8 23:45,28.55227661,1.064999967,0
2004/2/9 0:00,28.55227661,1.064999967,0
2004/2/9 0:15,28.55227661,1.064999967,0
2004/2/9 0:30,28.55227661,1.064999967,0
2004/2/9 0:45,13.32439709,0.497000009,0
2004/2/9 1:00,0,0,0
2004/2/9 1:15,0,0,0
2004/2/9 1:30,0,0,0
2004/2/9 1:45,0,0,0
2004/2/9 2:00,0,0,0
2004/2/9 2:15,0,0,0
2004/2/9 2:30,0,0,0
2004/2/9 2:45,0,0,0
2004/2/9 3:00,0,0,0
2004/2/9 3:15,0,0,0
2004/2/9 3:30,0,0,0
2004/2/9 3:45,0,0,0
2004/2/9 4:00,0,0,0
2004/2/9 4:15,0,0,0
2004/2/9 4:30,0,0,0
2004/2/9 4:45,0,0,0
2004/2/9 5:00,0,0,0
2004/2/9 5:15,0,0,0
2004/2/9 5:30,0,0,0
2004/2/9 5:45,0,0,0
2004/2/9 6:00,0,0,0
2004/2/9 6:15,0,0,0
2004/2/9 6:30,20.67023981,0.770999979,0
2004/2/9 6:45,28.55227661,1.064999967,0
2004/2/9 7:00,28.55227661,1.064999967,0
2004/2/9 7:15,16.83646059,0.627999991,0
2004/2/9 7:30,0,0,0
2004/2/9 7:45,0,0,0
2004/2/9 8:00,0,0,0
2004/2/9 8:15,0,0,0
2004/2/9 8:30,0,0,0
2004/2/9 8:45,0,0,0
2004/2/9 9:00,0,0,0
2004/2/9 9:15,0,0,0
2004/2/9 9:30,0,0,0
2004/2/9 9:45,0,0,0
2004/2/9 10:00,0,0,0
2004/2/9 10:15,0,0,0
2004/2/9 10:30,0,0,0
2004/2/9 10:45,0,0,0
2004/2/9 11:00,0,0,0
2004/2/9 11:15,0,0,0
2004/2/9 11:30,0,0,0
2004/2/9 11:45,0,0,0
2004/2/9 12:00,0,0,0
2004/2/9 12:15,0,0,0
2004/2/9 12:30,0,0,0
2004/2/9 12:45,0,0,0
2004/2/9 13:00,0,0,0
2004/2/9 13:15,0,0,0
2004/2/9 13:30,0,0,0
2004/2/9 13:45,0,0,0
2004/2/9 14:00,0,0,0
2004/2/9 14:15,0,0,0
2004/2/9 14:30,0,0,0
2004/2/9 14:45,0,0,0
2004/2/9 15:00,0,0,0
2004/2/9 15:15,0,0,0
2004/2/9 15:30,0,0,0
2004/2/9 15:45,0,0,0
2004/2/9 16:00,0,0,0
2004/2/9 16:15,0,0,0
2004/2/9 16:30,0,0,0
2004/2/9 16:45,0,0,0
2004/2/9 17:00,0,0,0
2004/2/9 17:15,0,0,0
2004/2/9 17:30,0,0,0
2004/2/9 17:45,0,0,0
2004/2/9 18:00,0,0,0
2004/2/9 18:15,0,0,0
2004/2/9 18:30,0,0,0
2004/2/9 18:45,0,0,0
2004/2/9 19:00,0,0,0
2004/2/9 19:15,0,0,0
2004/2/9 19:30,0,0,0
2004/2/9 19:45,0,0,0
2004/2/9 20:00,0,0,0
2004/2/9 20:15,0,0,0
2004/2/9 20:30,0,0,0
2004/2/9 20:45,0,0,0
2004/2/9 21:00,0,0,0
2004/2/9 21:15,0,0,0
2004/2/9 21:30,0,0,0
2004/2/9 21:45,0,0,0
2004/2/9 22:00,0,0,0
2004/2/9 22:15,0,0,0
2004/2/9 22:30,1.689008117,0.063000001,0
2004/2/9 22:45,28.55227661,1.064999967,0
2004/2/9 23:00,28.55227661,1.064999967,0
2004/2/9 23:15,28.55227661,1.064999967,0
2004/2/9 23:30,28.55227661,1.064999967,0
2004/2/9 23:45,28.55227661,1.064999967,0
2004/2/10 0:00,28.55227661,1.064999967,0
2004/2/10 0:15,23.51206398,0.877000004,0
2004/2/10 0:30,0,0,0
2004/2/10 0:45,0,0,0
2004/2/10 1:00,0,0,0
2004/2/10 1:15,0,0,0
2004/2/10 1:30,0,0,0
2004/2/10 1:45,0,0,0
2004/2/10 2:00,0,0,0
2004/2/10 2:15,0,0,0
2004/2/10 2:30,0,0,0
2004/2/10 2:45,0,0,0
2004/2/10 3:00,0,0,0
2004/2/10 3:15,0,0,0
2004/2/10 3:30,0,0,0
2004/2/10 3:45,0,0,0
2004/2/10 4:00,0,0,0
2004/2/10 4:15,0,0,0
2004/2/10 4:30,0,0,0
2004/2/10 4:45,0,0,0
2004/2/10 5:00,0,0,0
2004/2/10 5:15,0,0,0
2004/2/10 5:30,0,0,0
2004/2/10 5:45,0,0,0
2004/2/10 6:00,0,0,0
2004/2/10 6:15,0,0,0
2004/2/10 6:30,13.83377934,0.515999987,0
2004/2/10 6:45,28.55227661,1.064999967,0
2004/2/10 7:00,28.55227661,1.064999967,0
2004/2/10 7:15,23.10991955,0.862000018,0
2004/2/10 7:30,0,0,0
2004/2/10 7:45,0,0,0
2004/2/10 8:00,0,0,0
2004/2/10 8:15,0,0,0
2004/2/10 8:30,0,0,0
2004/2/10 8:45,0,0,0
2004/2/10 9:00,0,0,0
2004/2/10 9:15,0,0,0